Location: Unspecified
(0.0000°N, 0.0000°E)
Time: 11:55:51
(UTC+00:00)

Vanguard 3 - Pass Details

Date: 16 December 2017
Orbit: 508 x 3264 km, 33.3° (Epoch: 24 June)

Event Time Altitude Azimuth Distance (km) Brightness Sun altitude
Rises 22:12:06 0° 263° (W) 4,748 11.5 -55.6°
Reaches altitude 10° 22:15:37 10° 250° (WSW) 4,157 11.1 -56.3°
Maximum altitude 22:25:04 26° 198° (SSW) 3,901 10.7 -57.9°
Drops below altitude 10° 22:38:31 10° 149° (SSE) 5,942 11.6 -60.0°
Sets 22:45:06 0° 137° (SE) 7,175 12.1 -61.0°
